STARLINK-38015, 69726

Orbit data source: Space-Track

STARLINK-38015, 69726 is a payload satellite owned by SpaceX/Seattle (US) in SSO that was launched on Sun, 28 Jun 2026 UTC via an FALCON 9 launch vehicle from the Air Force Western Test Range (AFWTR). Payload-class satellites include a variety of spacecraft equipped with specific instruments for various scientific and technological missions. These include communications satellites like Starlink; space stations such as the ISS; scientific satellites like the Hubble; Earth observation satellites from companies like Planet Labs, Umbra, and HawkEye 360; GPS; miniature CubeSats for education and research; and military/defense satellites.

Loading next visibility...
Identifier
69726, 2026-147Y
Orbit
SSO
Country
Flag of USUS
Related business
Manufacturer
SpaceX/Seattle
Mission
Operational Commercial Communications
Bus & Motor
STARLINK V2MO, Unknown motor
Mass
575 kg wet, ~530 kg dry
Launch date (UTC)
2026-06-28 (2 months ago)
Launch vehicle
FALCON 9
Launch site
Air Force Western Test Range (AFWTR)
Object type
Payload
Rocket body
Debris
Shape & HBR
Box + 1 Pan, 17.7 m
Radar Cross Section
41.120 m², Large (>1 m²)

Expand to show TLE details & history
Last TLE update: 9 hours ago

TLE from 9 hours ago
0 STARLINK-38015
1 69726U 26147Y   26237.11952225  .00230968  00000-0  15084-2 0  9995
2 69726  97.2835 275.5796 0001448 102.8778 257.2649 15.75181567 10302
Epoch: 2026-08-25T02:52Z
TLE epoch observation values (Epoch: 2026-08-25T02:52:06.722Z)
Latitude
-0.00002°
Longitude
-100.83985°
Altitude
347.498 km
Speed
7.7 km/s
True Right ascension
18h 22m 19s
True Declination
0° 00' 00"
Sunlit
Object was in full shadow at epoch
Visualization orbit readout
Latitude
Unknown
Longitude
Unknown
Altitude
Unknown
Speed
Unknown
Apparent Right ascension
Unknown
Apparent Declination
Unknown
Sunlit
N/A
Visualization observer readout
Local Sidereal Time
03:27:34
Azimuth
Unknown
Elevation
Unknown
Doppler factor
Unknown
Orbital elements
Apogee altitude
341.975 km
Perigee altitude
340.029 km
Semi-major axis
6,719.139 km
Eccentricity
0.00014
Inclination
97.2835°
RAAN
275.5796°
Arg. of periapsis
102.8778°
True anomaly
257.24872°
Mean anomaly
257.2649°
Eccentric anomaly
257.25681°
Mean motion
3.94069 °/min
Orbital period
91.35 mins
BSTAR
0.0015084
Loading maneuver chart data...
Computing Atmospheric mass density...
Loading historical data...
Loading historical data...
Loading historical data...
Loading historical data...
Loading historical data...
Loading historical data...
Loading historical data...

Documentation

Showing up to 5 results
|